Austin, MN

3:53 PM CDT on October 17, 2017 (GMT -0500)
Austin Municipal

Weather History for KAUM - September, 2013

Change the Weather History Date:

Monday, September 9, 2013

  Actual Average Record
Temperature  
Mean Temperature 78 °F -  
Max Temperature 93 °F 73 °F 93 °F (2002)
Min Temperature 64 °F 53 °F 35 °F (2008)
Cooling Degree Days 14    
Growing Degree Days 28 (Base 50)    
Moisture  
Dew Point 63 °F    
Average Humidity 66    
Maximum Humidity 94    
Minimum Humidity 24    
Precipitation  
Precipitation 0.00 in - - ()
Sea Level Pressure  
Sea Level Pressure 29.80 in    
Wind  
Wind Speed 8 mph (South)    
Max Wind Speed 18 mph    
Max Gust Speed 25 mph    
Visibility 7 miles    
Events Fog , Thunderstorm    
Averages and records for this station are not official NWS values.
T = Trace of Precipitation, MM = Missing Value Source: NWS Daily Summary

Daily Weather History Graph

Daily Weather History Graph

Search for Another Location

Airport or City:

Trip Planner

Search our weather history database for the weather conditions in past years. The results will help you decide how hot, cold, wet, or windy it might be!

Date:

Astronomy

Sep. 09, 2013 Rise Set
Actual Time 6:44 AM CDT 7:32 PM CDT
Civil Twilight 6:15 AM CDT 8:01 PM CDT
Nautical Twilight 5:40 AM CDT 8:35 PM CDT
Astronomical Twilight 5:04 AM CDT 9:11 PM CDT
Moon 11:16 AM CDT (9/9) 9:39 PM CDT (9/9)
Length of Visible Light 13h 45m
Length of Day
12h 47m
Waxing Crescent, 19% of the Moon is Illuminated
Sep 9
Waxing Crescent
Sep 12
First Quarter
Sep 19
Full
Sep 26
Last Quarter
Oct 4
New

Hourly Weather History & Observations

Time (CDT) Temp. Heat Index Dew Point Humidity Pressure Visibility Wind Dir Wind Speed Gust Speed Precip Events Conditions
12:17 AM 66.2 °F - 62.6 °F 88% 29.91 in 7.0 mi ESE 4.6 mph - N/A   Clear
12:36 AM 66.2 °F - 62.6 °F 88% 29.90 in 7.0 mi ESE 4.6 mph - N/A   Scattered Clouds
12:56 AM 66.2 °F - 62.6 °F 88% 29.90 in 7.0 mi ESE 4.6 mph - N/A   Scattered Clouds
1:17 AM 66.2 °F - 62.6 °F 88% 29.90 in 7.0 mi ESE 4.6 mph - N/A   Clear
1:36 AM 64.4 °F - 62.6 °F 94% 29.89 in 5.0 mi ESE 5.8 mph - N/A   Clear
1:56 AM 66.2 °F - 62.6 °F 88% 29.88 in 5.0 mi SE 4.6 mph - N/A   Mostly Cloudy
2:17 AM 66.2 °F - 62.6 °F 88% 29.87 in 5.0 mi SE 5.8 mph - N/A   Mostly Cloudy
2:36 AM 66.2 °F - 62.6 °F 88% 29.87 in 4.0 mi SE 3.5 mph - N/A   Scattered Clouds
2:56 AM 66.2 °F - 62.6 °F 88% 29.87 in 4.0 mi SE 3.5 mph - N/A   Mostly Cloudy
3:17 AM 66.2 °F - 64.4 °F 94% 29.86 in 4.0 mi SE 5.8 mph - N/A   Overcast
3:36 AM 66.2 °F - 64.4 °F 94% 29.86 in 4.0 mi ESE 3.5 mph - N/A   Overcast
3:56 AM 66.2 °F - 64.4 °F 94% 29.86 in 3.0 mi SE 4.6 mph - N/A   Overcast
4:17 AM 68.0 °F - 64.4 °F 88% 29.84 in 3.0 mi SE 6.9 mph - N/A   Overcast
4:36 AM 68.0 °F - 64.4 °F 88% 29.84 in 4.0 mi SE 5.8 mph - N/A   Overcast
4:56 AM 68.0 °F - 64.4 °F 88% 29.84 in 3.0 mi SSE 4.6 mph - N/A   Overcast
5:17 AM 69.8 °F - 64.4 °F 83% 29.84 in 3.0 mi SSE 4.6 mph - N/A   Overcast
5:36 AM 69.8 °F - 66.2 °F 88% 29.84 in 3.0 mi SSE 6.9 mph - N/A   Overcast
5:56 AM 69.8 °F - 66.2 °F 88% 29.84 in 2.5 mi SSE 8.1 mph - N/A   Overcast
6:16 AM 69.8 °F - 66.2 °F 88% 29.84 in 2.5 mi SSE 5.8 mph - N/A   Overcast
6:37 AM 69.8 °F - 66.2 °F 88% 29.83 in 2.0 mi SSE 6.9 mph - N/A Thunderstorm Overcast
6:56 AM 68.0 °F - 66.2 °F 94% 29.83 in 2.0 mi SSE 8.1 mph - N/A   Overcast
7:17 AM 68.0 °F - 66.2 °F 94% 29.82 in 0.8 mi SSE 5.8 mph - N/A   Overcast
7:37 AM 68.0 °F - 66.2 °F 94% 29.83 in 0.8 mi South 9.2 mph - N/A   Overcast
7:56 AM 68.0 °F - 66.2 °F 94% 29.82 in 0.5 mi SSE 8.1 mph - N/A Fog Fog
8:17 AM 68.0 °F - 66.2 °F 94% 29.83 in 0.2 mi South 8.1 mph - N/A Fog Fog
8:37 AM 69.8 °F - 66.2 °F 88% 29.83 in 0.5 mi South 8.1 mph - N/A Fog Fog
8:56 AM 69.8 °F - 66.2 °F 88% 29.82 in 0.8 mi South 8.1 mph - N/A   Overcast
9:17 AM 69.8 °F - 66.2 °F 88% 29.82 in 0.8 mi South 10.4 mph - N/A   Overcast
9:37 AM 69.8 °F - 66.2 °F 88% 29.82 in 2.0 mi South 9.2 mph - N/A   Overcast
9:56 AM 71.6 °F - 66.2 °F 83% 29.81 in 3.0 mi South 9.2 mph - N/A   Overcast
10:16 AM 71.6 °F - 66.2 °F 83% 29.81 in 3.0 mi South 10.4 mph - N/A   Haze
10:37 AM 73.4 °F - 68.0 °F 83% 29.80 in 4.0 mi SSE 9.2 mph - N/A   Haze
10:56 AM 75.2 °F - 68.0 °F 78% 29.80 in 5.0 mi South 10.4 mph 17.3 mph N/A   Haze
11:16 AM 77.0 °F - 69.8 °F 78% 29.79 in 5.0 mi South 11.5 mph - N/A   Haze
11:36 AM 78.8 °F - 69.8 °F 74% 29.79 in 7.0 mi SSW 11.5 mph - N/A   Clear
11:56 AM 80.6 °F 83.2 °F 68.0 °F 65% 29.79 in 10.0 mi South 13.8 mph - N/A   Clear
12:17 PM 82.4 °F 85.4 °F 68.0 °F 62% 29.77 in 10.0 mi South 11.5 mph - N/A   Clear
12:36 PM 82.4 °F 85.4 °F 68.0 °F 62% 29.77 in 10.0 mi South 13.8 mph 21.9 mph N/A   Clear
12:56 PM 82.4 °F 86.3 °F 69.8 °F 66% 29.76 in 10.0 mi SSW 13.8 mph 18.4 mph N/A   Clear
1:16 PM 84.2 °F 87.3 °F 68.0 °F 58% 29.76 in 10.0 mi South 15.0 mph - N/A   Clear
1:37 PM 84.2 °F 87.3 °F 68.0 °F 58% 29.75 in 10.0 mi South 16.1 mph 19.6 mph N/A   Clear
1:57 PM 86.0 °F 90.4 °F 69.8 °F 58% 29.75 in 10.0 mi South 12.7 mph - N/A   Clear
2:17 PM 89.6 °F 92.2 °F 66.2 °F 46% 29.75 in 10.0 mi SSW 13.8 mph - N/A   Clear
2:36 PM 89.6 °F 92.2 °F 66.2 °F 46% 29.74 in 10.0 mi SSW 17.3 mph 23.0 mph N/A   Clear
2:57 PM 91.4 °F 92.1 °F 62.6 °F 38% 29.74 in 10.0 mi SSW 17.3 mph 21.9 mph N/A   Clear
3:17 PM 89.6 °F 90.1 °F 62.6 °F 40% 29.73 in 10.0 mi SSW 18.4 mph 25.3 mph N/A   Clear
3:36 PM 91.4 °F 92.1 °F 62.6 °F 38% 29.73 in 10.0 mi SSW 15.0 mph 23.0 mph N/A   Clear
3:57 PM 91.4 °F 93.2 °F 64.4 °F 41% 29.73 in 10.0 mi SSW 15.0 mph 21.9 mph N/A   Clear
4:17 PM 89.6 °F 90.1 °F 62.6 °F 40% 29.72 in 10.0 mi South 12.7 mph 18.4 mph N/A   Clear
4:36 PM 91.4 °F 91.4 °F 60.8 °F 36% 29.72 in 10.0 mi SSW 11.5 mph 18.4 mph N/A   Clear
4:57 PM 93.2 °F 91.9 °F 57.2 °F 30% 29.72 in 10.0 mi SSW 17.3 mph 24.2 mph N/A   Clear
5:17 PM 93.2 °F 91.9 °F 57.2 °F 30% 29.72 in 10.0 mi SSW 16.1 mph - N/A   Clear
5:36 PM 93.2 °F 90.8 °F 53.6 °F 26% 29.72 in 10.0 mi SSW 16.1 mph 23.0 mph N/A   Clear
5:57 PM 93.2 °F - 51.8 °F 24% 29.72 in 10.0 mi SSW 13.8 mph 20.7 mph N/A   Clear
6:16 PM 91.4 °F 89.1 °F 53.6 °F 28% 29.73 in 10.0 mi SSW 13.8 mph 20.7 mph N/A   Clear
6:36 PM 91.4 °F 89.1 °F 53.6 °F 28% 29.73 in 10.0 mi SSW 12.7 mph 18.4 mph N/A   Clear
6:56 PM 89.6 °F 87.3 °F 53.6 °F 29% 29.73 in 10.0 mi SSW 10.4 mph - N/A   Clear
7:16 PM 86.0 °F 84.5 °F 55.4 °F 35% 29.74 in 10.0 mi SSW 9.2 mph - N/A   Clear
7:37 PM 84.2 °F 83.5 °F 57.2 °F 40% 29.75 in 10.0 mi SSW 8.1 mph - N/A   Clear
7:56 PM 84.2 °F 83.0 °F 55.4 °F 37% 29.75 in 10.0 mi SSW 9.2 mph - N/A   Clear
8:17 PM 82.4 °F 82.0 °F 57.2 °F 42% 29.76 in 10.0 mi SSW 8.1 mph - N/A   Clear
8:36 PM 80.6 °F 80.8 °F 57.2 °F 45% 29.77 in 10.0 mi SSW 6.9 mph - N/A   Clear
8:57 PM 80.6 °F 80.8 °F 57.2 °F 45% 29.78 in 10.0 mi SW 8.1 mph - N/A   Clear
9:16 PM 78.8 °F - 57.2 °F 47% 29.79 in 10.0 mi SW 8.1 mph - N/A   Clear
9:37 PM 78.8 °F - 57.2 °F 47% 29.79 in 10.0 mi SSW 6.9 mph - N/A   Clear
9:56 PM 77.0 °F - 59.0 °F 54% 29.80 in 10.0 mi SSW 6.9 mph - N/A   Clear
10:17 PM 77.0 °F - 59.0 °F 54% 29.80 in 10.0 mi SW 5.8 mph - N/A   Clear
10:36 PM 78.8 °F - 59.0 °F 51% 29.81 in 10.0 mi SW 6.9 mph - N/A   Clear
10:56 PM 77.0 °F - 59.0 °F 54% 29.81 in 10.0 mi SW 6.9 mph - N/A   Clear
11:16 PM 75.2 °F - 59.0 °F 57% 29.82 in 10.0 mi SW 5.8 mph - N/A   Clear
11:36 PM 75.2 °F - 60.8 °F 61% 29.81 in 10.0 mi SSW 8.1 mph - N/A   Clear
11:57 PM 75.2 °F - 59.0 °F 57% 29.81 in 10.0 mi SSW 8.1 mph - N/A   Clear